ONEWEB-0720, 55835

Orbit data source: Space-Track

ONEWEB-0720, 55835 is a payload satellite owned by One Web (NAA) (UK) in LEO that was launched on Thu, 09 Mar 2023 UTC via an FALCON 9 launch vehicle from the Air Force Eastern Test Range (AFETR). Payload-class satellites include a variety of spacecraft equipped with specific instruments for various scientific and technological missions. These include communications satellites like Starlink; space stations such as the ISS; scientific satellites like the Hubble; Earth observation satellites from companies like Planet Labs, Umbra, and HawkEye 360; GPS; miniature CubeSats for education and research; and military/defense satellites.

Loading next visibility...
Identifier
55835, 2023-029AR
Orbit
LEO
Country
Flag of UKUK
Related business
Manufacturer
One Web
Mission
Operational Commercial Communications
Bus & Motor
ARROW, Unknown motor
Mass
148 kg wet, ~140 kg dry
Launch date (UTC)
2023-03-09 (3 years ago)
Launch vehicle
FALCON 9
Launch site
Air Force Eastern Test Range (AFETR)
Object type
Payload
Rocket body
Debris
Shape & HBR
Trap Box + 2 Pan, 6.7 m
Radar Cross Section
3.464 m², Large (>1 m²)

Expand to show TLE details & history
Last TLE update: 2 days ago

TLE from 2 days ago
0 ONEWEB-0720
1 55835U 23029AR  26171.38364869  .00000131  00000-0  29482-3 0  9999
2 55835  87.9173 304.3402 0001685 106.4628 253.6689 13.19725312159262
Epoch: 2026-06-20T09:12Z
TLE epoch observation values (Epoch: 2026-06-20T09:12:27.246Z)
Latitude
-0.00014°
Longitude
-102.37238°
Altitude
1,189.03 km
Speed
7.259 km/s
True Right ascension
20h 17m 21s
True Declination
0° 00' 00"
Sunlit
Object was in full shadow at epoch
Visualization orbit readout
Latitude
Unknown
Longitude
Unknown
Altitude
Unknown
Speed
Unknown
Apparent Right ascension
Unknown
Apparent Declination
Unknown
Sunlit
N/A
Visualization observer readout
Local Sidereal Time
21:34:42
Azimuth
Unknown
Elevation
Unknown
Doppler factor
Unknown
Orbital elements
Apogee altitude
1,184.149 km
Perigee altitude
1,181.601 km
Semi-major axis
7,561.012 km
Eccentricity
0.00017
Inclination
87.9173°
RAAN
304.3402°
Arg. of periapsis
106.4628°
True anomaly
253.65037°
Mean anomaly
253.6689°
Eccentric anomaly
253.65964°
Mean motion
3.30121 °/min
Orbital period
109.05 mins
BSTAR
0.00029482
Loading maneuver chart data...
Computing Atmospheric mass density...
Loading historical data...
Loading historical data...
Loading historical data...
Loading historical data...
Loading historical data...
Loading historical data...
Loading historical data...

Documentation

Showing up to 5 results
|